Wind_Speed
18 18 18 17 14 13 12 11 10 10 11 10 8 6 5 3 4 5 6 7 7 6 6 7 7 7 7 6 6 7 6 6 6 6 6 6 6 7 7 7 8 7
19 19 19 18 16 15 14 13 11 11 11 11 9 7 6 5 5 6 6 7 7 7 7 7 8 7 7 7 7 7 7 6 6 6 7 7 7 7 7 8 9 9
20 21 20 19 18 16 16 14 13 12 12 12 11 9 8 7 6 7 7 7 7 7 7 8 8 8 7 7 7 7 7 7 7 7 7 7 7 7 7 8 9 9
20 21 21 20 19 17 17 17 16 15 14 14 12 11 10 9 8 8 8 8 8 7 8 8 8 8 7 8 8 8 7 7 7 7 7 7 7 6 7 7 8 9
20 20 20 20 20 19 19 19 18 17 16 15 14 13 12 11 10 9 9 9 8 8 8 8 8 8 8 8 8 8 7 6 6 7 7 7 7 7 7 8 8 9
20 20 20 20 20 20 21 20 19 18 17 15 14 13 12 12 12 11 10 10 9 8 8 8 9 9 9 9 9 8 7 6 6 7 6 6 7 7 7 8 8 8
20 20 21 20 21 21 21 21 20 18 17 16 14 13 13 13 12 12 11 11 10 9 8 8 8 8 9 10 10 9 9 8 8 8 7 6 6 7 8 8 8 8
19 20 21 21 22 22 21 21 20 19 18 17 15 14 14 13 13 12 12 12 11 10 8 7 7 7 7 9 10 10 10 9 9 9 8 7 6 7 7 8 9 8
18 19 20 21 22 23 22 21 20 20 19 18 16 15 15 14 13 12 12 13 13 12 10 9 7 7 7 9 10 11 11 10 10 10 10 9 8 7 7 8 8 8
20 20 20 20 21 22 22 21 20 20 19 18 17 17 17 16 14 13 13 14 14 13 12 11 9 8 8 8 9 10 11 11 11 11 11 10 10 9 8 8 8 8
22 21 20 20 21 21 22 21 21 20 20 20 19 19 18 18 16 15 14 14 15 14 13 12 11 10 10 10 9 9 10 10 11 11 11 10 10 9 9 10 10 10
24 22 20 20 20 19 20 20 21 21 20 20 20 19 19 19 18 17 16 15 15 14 14 13 12 11 11 11 10 10 9 9 10 11 12 11 10 9 9 10 11 11
26 23 21 20 20 20 20 19 20 20 20 20 19 19 19 19 19 18 16 16 15 15 15 14 13 12 11 11 10 10 9 9 10 10 12 12 12 10 9 10 10 11
27 23 21 20 20 20 20 19 19 20 20 20 19 19 18 18 18 18 17 16 16 16 16 15 15 14 13 11 11 10 10 10 10 10 11 12 12 11 11 11 11 11
26 22 20 19 18 19 19 19 19 18 19 19 19 19 19 18 18 18 18 17 17 16 17 17 17 17 15 13 12 11 11 10 10 11 11 11 11 11 11 12 12 12
25 21 19 19 18 18 19 19 19 19 20 20 19 19 19 19 19 19 19 18 18 18 18 18 19 19 17 16 14 13 13 13 13 13 12 12 12 11 11 11 12 12
23 21 19 19 18 19 19 20 20 20 20 20 19 19 19 19 19 19 19 19 19 19 19 20 20 19 18 17 16 15 15 15 16 16 15 15 14 13 12 12 11 12
20 20 19 18 18 20 20 20 20 20 20 20 19 19 19 20 20 20 20 20 20 21 20 20 20 20 19 19 18 17 17 17 18 17 17 17 17 16 15 14 13 13
13 15 15 15 16 18 18 19 19 19 19 20 21 20 19 20 21 21 20 20 20 21 21 20 21 21 21 20 19 19 19 20 19 18 18 18 17 17 17 16 16 15
11 12 13 13 12 13 15 17 17 16 15 16 19 20 18 18 20 20 21 21 21 21 21 21 21 21 21 20 20 20 21 21 21 20 19 18 18 18 18 18 18 18
12 12 12 11 11 11 12 14 14 14 14 14 16 16 15 15 16 18 19 20 21 21 21 22 22 21 21 21 21 20 21 22 22 22 21 20 19 19 19 19 20 20
8 8 8 9 10 10 11 11 11 12 13 14 14 13 12 12 13 14 16 17 19 20 21 22 22 22 21 21 21 21 21 21 22 23 23 23 22 21 20 20 20 20
5 5 6 6 7 7 7 7 8 11 12 13 13 13 12 12 12 13 15 16 17 18 18 20 21 22 22 21 21 22 22 21 21 23 24 25 24 23 23 21 21 21
5 5 5 5 5 6 5 5 6 8 9 9 10 10 11 12 13 14 15 15 15 16 16 18 19 21 22 21 21 21 23 23 23 23 24 25 25 25 25 24 23 23
6 6 6 5 6 6 5 5 5 5 5 6 6 7 8 9 11 12 13 14 14 14 15 16 18 20 21 21 22 23 24 25 24 24 24 25 26 26 25 24 24 24
6 6 6 6 6 6 6 5 5 4 4 4 4 5 6 7 8 8 9 11 11 12 14 15 15 16 19 20 21 23 25 26 25 25 26 27 27 27 26 24 23 23
Wind_Direction
220 220 220 223 226 226 228 232 234 232 228 224 223 225 228 239 257 256 246 238 231 224 218 215 217 222 226 231 237 243 244 240 236 237 238 236 234 235 243 248 241 234
222 222 223 225 227 228 231 234 236 234 233 232 231 230 231 238 253 258 252 242 235 229 224 222 220 221 226 230 234 242 247 245 241 240 238 235 233 233 239 241 237 236
224 224 225 228 230 231 233 238 241 238 238 237 237 241 240 238 248 257 252 244 244 237 229 230 230 227 228 230 233 239 241 239 237 238 238 236 232 231 236 237 236 238
225 226 228 230 233 236 238 242 245 245 245 241 240 246 249 245 246 250 248 244 248 243 233 235 238 238 235 234 235 236 233 232 232 236 238 237 236 235 235 235 235 241
228 229 229 232 234 237 240 242 245 247 247 246 244 245 249 249 247 246 245 244 247 245 237 236 242 245 243 241 240 237 234 233 234 240 244 243 243 241 236 236 236 242
228 230 231 232 234 237 240 241 242 243 244 244 244 245 249 250 248 246 245 244 244 243 240 240 243 247 250 250 248 244 240 239 238 242 248 250 249 245 242 243 242 241
228 230 232 233 233 236 239 240 239 239 239 239 241 244 249 251 250 248 246 244 241 237 238 243 247 253 257 257 255 251 247 245 243 245 249 249 247 247 249 254 253 249
230 232 234 235 235 236 237 238 238 238 238 238 239 243 246 249 251 249 246 244 241 239 238 239 246 256 264 265 262 259 255 250 248 250 255 253 247 248 254 260 262 261
234 235 236 236 236 236 236 236 236 237 238 238 238 240 242 245 247 248 246 242 242 243 240 239 247 256 266 272 270 265 262 258 254 253 256 256 255 254 254 259 264 266
239 238 237 237 238 238 238 237 236 236 238 239 239 240 241 243 245 246 244 242 242 243 241 242 248 255 263 271 273 269 264 261 258 256 254 255 258 258 255 256 260 264
240 240 238 237 237 239 239 239 239 240 241 241 242 242 243 245 246 246 244 243 243 244 245 246 248 254 262 268 273 274 269 264 260 256 252 252 254 258 258 257 259 262
240 240 239 238 238 241 242 242 242 242 243 245 245 245 246 246 246 244 243 244 245 245 246 248 249 253 260 265 269 270 272 272 265 258 254 251 252 255 259 262 262 264
236 235 235 233 233 237 241 244 244 243 243 244 246 246 246 246 244 243 243 244 245 244 245 248 249 250 255 260 261 261 267 272 271 266 260 255 254 254 256 261 264 266
234 233 234 231 228 230 235 238 241 244 245 245 246 246 245 243 242 243 246 248 249 248 248 249 248 247 248 252 253 256 262 268 273 275 270 265 262 261 262 264 266 268
236 235 238 237 232 232 235 234 234 240 246 247 247 246 244 243 243 245 249 253 255 255 254 254 253 251 249 247 247 251 258 264 272 276 277 277 275 273 274 273 273 275
238 235 235 235 233 234 236 234 233 238 245 248 248 246 244 244 246 249 252 256 260 262 261 261 259 257 256 252 248 248 256 263 269 272 276 278 279 280 280 280 281 281
242 237 234 232 232 233 235 235 235 238 242 245 245 245 246 246 248 251 255 259 262 264 265 266 264 264 263 260 256 253 258 265 269 271 273 274 277 279 279 279 280 280
239 237 234 229 225 227 230 234 237 240 244 245 243 243 244 244 246 249 251 255 258 261 263 265 266 267 265 263 259 256 260 267 270 272 272 272 274 277 279 281 281 282
225 226 222 220 221 224 228 233 236 240 246 247 243 241 241 242 244 246 248 252 255 256 258 260 264 265 264 262 260 256 257 261 265 268 269 270 272 275 277 279 280 283
191 196 198 205 213 218 223 226 228 232 239 243 243 241 240 241 244 245 247 249 252 253 253 255 259 261 260 259 259 258 257 258 261 263 264 266 268 270 272 274 276 279
186 191 193 199 202 207 213 216 219 225 231 239 246 244 242 242 245 247 247 248 249 251 252 254 258 261 263 260 257 257 258 261 264 265 265 265 266 267 268 271 273 275
186 191 195 198 202 208 212 212 219 230 234 240 247 250 249 247 247 250 251 251 251 250 252 254 258 262 264 263 261 258 259 263 266 268 269 268 267 266 266 267 269 271
189 191 198 202 209 220 227 222 228 238 242 244 247 249 251 251 250 251 252 254 255 255 254 253 254 256 257 259 261 262 262 264 266 268 269 268 268 268 267 266 267 268
207 212 217 222 228 237 246 244 239 245 251 253 254 253 254 255 254 253 251 251 252 255 257 255 253 254 253 254 256 259 262 264 265 267 269 268 267 267 266 266 267 268
206 213 218 223 227 227 229 230 232 242 254 264 269 269 265 261 261 261 259 255 254 256 261 262 261 260 258 255 254 255 257 259 260 263 267 267 266 266 265 265 265 267
200 203 205 208 211 212 214 217 219 225 240 260 273 274 270 267 270 274 274 271 270 269 268 268 269 268 265 260 256 254 254 255 257 260 264 266 266 267 267 266 265 266
Height
1600 1602 1603 1604 1605 1606 1607 1608 1609 1610 1611 1612 1612 1613 1614 1615 1615 1615 1616 1616 1617 1617 1617 1618 1618 1619 1620 1620 1621 1622 1622 1622 1622 1623 1623 1624 1624 1625 1626 1626 1626 1627
1599 1600 1602 1603 1604 1605 1606 1607 1608 1609 1610 1611 1611 1612 1613 1614 1614 1615 1615 1615 1616 1616 1617 1617 1618 1618 1619 1620 1620 1621 1621 1622 1622 1622 1623 1623 1624 1624 1625 1625 1625 1626
1597 1599 1600 1601 1602 1604 1605 1606 1607 1608 1609 1610 1610 1611 1612 1613 1613 1614 1614 1615 1615 1616 1616 1617 1617 1618 1618 1619 1619 1620 1620 1621 1621 1622 1622 1622 1623 1623 1624 1624 1625 1625
1596 1597 1599 1600 1601 1603 1604 1605 1606 1607 1608 1609 1609 1610 1611 1612 1612 1613 1613 1614 1615 1615 1616 1616 1617 1617 1618 1618 1619 1619 1620 1620 1621 1621 1621 1622 1622 1623 1623 1623 1624 1624
1594 1596 1597 1599 1601 1602 1603 1604 1605 1606 1607 1608 1609 1609 1610 1611 1611 1612 1612 1613 1614 1615 1615 1616 1617 1617 1618 1618 1618 1619 1619 1619 1620 1620 1621 1621 1621 1622 1622 1622 1623 1623
1593 1595 1596 1598 1599 1601 1602 1603 1604 1605 1606 1607 1607 1608 1609 1609 1610 1611 1611 1612 1613 1614 1615 1615 1616 1617 1617 1618 1618 1618 1618 1619 1619 1619 1620 1620 1621 1621 1621 1622 1622 1622
1592 1593 1595 1597 1598 1599 1601 1602 1603 1604 1605 1606 1606 1607 1608 1608 1609 1610 1611 1611 1612 1613 1614 1615 1616 1616 1617 1617 1617 1618 1618 1618 1618 1619 1619 1619 1620 1620 1621 1621 1621 1622
1591 1592 1594 1595 1597 1598 1599 1600 1602 1603 1604 1604 1605 1606 1607 1607 1608 1609 1610 1610 1611 1612 1613 1614 1615 1615 1616 1616 1616 1617 1617 1617 1618 1618 1618 1619 1619 1620 1620 1620 1621 1621
1590 1591 1593 1594 1595 1597 1598 1599 1601 1602 1603 1603 1604 1605 1605 1606 1607 1607 1608 1609 1610 1611 1612 1613 1614 1614 1615 1615 1615 1616 1616 1617 1617 1617 1618 1618 1618 1619 1619 1619 1620 1620
1588 1589 1591 1593 1594 1596 1597 1598 1600 1601 1602 1602 1603 1604 1604 1605 1606 1606 1607 1608 1609 1610 1611 1612 1613 1613 1614 1614 1615 1615 1615 1616 1616 1616 1617 1617 1618 1618 1618 1619 1619 1619
1586 1588 1589 1591 1593 1594 1596 1597 1599 1600 1601 1601 1602 1602 1603 1604 1605 1605 1606 1606 1607 1608 1609 1610 1611 1612 1612 1613 1614 1614 1614 1615 1615 1616 1616 1616 1617 1617 1617 1618 1618 1618
1583 1585 1587 1588 1591 1593 1595 1596 1597 1598 1599 1600 1601 1601 1602 1602 1603 1604 1604 1605 1606 1607 1607 1608 1609 1610 1611 1612 1612 1613 1613 1614 1614 1615 1615 1615 1615 1616 1616 1616 1616 1617
1580 1581 1583 1585 1587 1590 1592 1594 1596 1597 1598 1599 1599 1600 1600 1601 1602 1602 1603 1603 1604 1605 1606 1607 1608 1609 1609 1610 1611 1611 1612 1612 1613 1613 1614 1614 1614 1615 1615 1615 1615 1615
1576 1579 1580 1582 1584 1586 1589 1591 1593 1595 1596 1597 1597 1598 1598 1599 1600 1601 1601 1602 1603 1603 1604 1605 1606 1607 1608 1608 1609 1610 1610 1611 1611 1612 1612 1613 1613 1613 1614 1614 1614 1614
1573 1576 1578 1580 1582 1585 1587 1588 1590 1592 1593 1595 1595 1596 1597 1597 1598 1599 1600 1601 1601 1602 1603 1604 1604 1605 1606 1607 1608 1608 1609 1609 1610 1610 1611 1611 1612 1612 1612 1612 1613 1613
1570 1573 1576 1579 1581 1583 1585 1586 1587 1589 1591 1592 1593 1594 1594 1595 1596 1597 1598 1599 1600 1600 1601 1602 1602 1603 1605 1606 1606 1607 1607 1608 1608 1609 1609 1610 1610 1610 1610 1610 1611 1611
1569 1571 1574 1577 1580 1582 1583 1584 1585 1586 1588 1590 1591 1591 1592 1593 1594 1595 1596 1597 1597 1598 1599 1600 1601 1602 1603 1604 1605 1605 1606 1606 1606 1607 1607 1608 1608 1608 1608 1609 1609 1609
1567 1570 1572 1575 1578 1580 1581 1582 1583 1584 1587 1588 1588 1589 1589 1590 1591 1592 1593 1594 1595 1596 1597 1597 1598 1599 1600 1601 1602 1603 1604 1604 1604 1605 1605 1606 1606 1606 1606 1607 1607 1607
1566 1569 1572 1574 1576 1577 1578 1579 1580 1581 1584 1586 1586 1586 1587 1588 1589 1590 1590 1591 1592 1593 1594 1594 1595 1596 1597 1598 1599 1601 1601 1602 1602 1603 1603 1604 1604 1604 1605 1605 1605 1605
1566 1569 1571 1572 1574 1574 1575 1576 1577 1579 1582 1584 1584 1584 1585 1586 1587 1587 1588 1588 1589 1590 1591 1592 1592 1593 1594 1595 1596 1598 1599 1599 1600 1600 1601 1601 1602 1602 1602 1602 1603 1603
1567 1568 1569 1570 1571 1572 1573 1574 1575 1577 1580 1583 1582 1582 1583 1583 1584 1584 1585 1585 1586 1587 1588 1589 1590 1591 1592 1593 1593 1594 1596 1597 1598 1598 1599 1599 1599 1600 1600 1600 1600 1600
1567 1567 1568 1569 1570 1571 1572 1573 1574 1576 1579 1581 1581 1580 1581 1581 1581 1582 1582 1583 1584 1585 1586 1588 1589 1590 1591 1591 1591 1592 1593 1594 1595 1596 1597 1597 1597 1597 1597 1597 1597 1597
1567 1568 1569 1570 1570 1571 1571 1573 1574 1576 1577 1578 1579 1579 1579 1579 1580 1580 1580 1581 1582 1583 1584 1585 1587 1587 1588 1588 1589 1589 1590 1591 1592 1594 1595 1595 1596 1595 1595 1595 1595 1595
1568 1569 1570 1570 1570 1571 1571 1572 1574 1575 1575 1576 1577 1577 1578 1578 1578 1578 1579 1579 1580 1580 1581 1582 1583 1584 1585 1586 1587 1587 1588 1589 1590 1591 1592 1593 1593 1593 1593 1593 1593 1592
1569 1570 1570 1570 1570 1570 1571 1571 1572 1573 1573 1574 1574 1575 1575 1575 1576 1576 1577 1577 1578 1578 1578 1579 1580 1581 1583 1584 1584 1585 1585 1586 1586 1588 1589 1590 1590 1590 1590 1590 1590 1589
1569 1570 1570 1570 1570 1570 1570 1571 1571 1572 1572 1573 1573 1573 1574 1573 1574 1574 1574 1575 1576 1576 1576 1577 1578 1579 1580 1580 1580 1582 1583 1583 1583 1584 1585 1586 1587 1587 1587 1587 1586 1586